Home   Weather   Port Vila   Past weeks

Flag for Vanuatu Past Weather in Port Vila, Vanuatu — Yesterday and Last 2 Weeks

Now
79 °F

Partly sunny.


Feels Like: 80 °F
Forecast: 68 / 77 °F
Wind: 14 mph from Southwest

Location: Bauerfield Efate

Current Time: Aug 20, 2017 at 1:38:15 pm

Latest Report: Aug 20, 2017 at 1:00 pm


Visibility: N/A

Pressure: 29.83 "Hg

Humidity: 51%

Dew Point: 59 °F

Location of Port VilaLocation

Past Weather in Port Vila — Graph

°F

Port Vila Temperature Yesterday

Maximum temperature yesterday: 79 °F (at 12:00 pm)
Minimum temperature yesterday: 55 °F (at 2:00 am)
Average temperature yesterday: 69 °F

High & Low Weather Summary for the Past Weeks

 TemperatureHumidityPressure
High81 °F (Aug 10, 11:00 am)100% (Aug 6, 5:00 am)30.09 "Hg (Aug 6, 5:00 am)
Low55 °F (Aug 19, 2:00 am)48% (Aug 18, 2:00 pm)29.80 "Hg (Aug 19, 3:00 pm)
Average71 °F80%29.98 "Hg
* Reported Aug 5 12:00 pm — Aug 20 12:00 pm, Port Vila. Weather by CustomWeather, © 2017

Note: Actual official high and low records may vary slightly from our data, if they occured in-between our weather recording intervals... More about our weather records

Advertising

Port Vila Weather History for the Previous 24 Hours

Scroll right to see more
 ConditionsComfort  
Time TempWeatherWind HumidityBarometerVisibility
12:00 pm
Sun, Aug 20
79 °FPartly sunny.14 mph51%29.83 "HgN/A
9:00 am77 °FPassing clouds.9 mph57%29.89 "HgN/A
8:00 am70 °FPassing clouds.3 mph78%29.89 "HgN/A
7:00 am63 °FPassing clouds.3 mph88%29.89 "HgN/A
6:00 am59 °FPassing clouds.5 mph94%29.86 "HgN/A
5:00 am59 °FPartly cloudy.3 mph94%29.86 "HgN/A
3:00 am59 °FPassing clouds.3 mph94%29.83 "HgN/A
12:00 am63 °FPartly cloudy.2 mph94%29.89 "HgN/A
11:00 pm
Sat, Aug 19
66 °FPartly cloudy.2 mph88%29.89 "HgN/A
10:00 pm66 °FPartly cloudy.2 mph88%29.89 "HgN/A
9:00 pm64 °FPartly cloudy.2 mph94%29.89 "HgN/A
7:00 pm66 °FPassing clouds.No wind88%29.86 "HgN/A
6:00 pm70 °FPassing clouds.2 mph78%29.86 "HgN/A
5:00 pm73 °FBroken clouds.3 mph65%29.83 "HgN/A
4:00 pm77 °FPartly sunny.5 mph57%29.83 "HgN/A
3:00 pm77 °FPartly sunny.7 mph54%29.80 "HgN/A
2:00 pm77 °FPartly sunny.9 mph54%29.83 "HgN/A
1:00 pm79 °FBroken clouds.9 mph54%29.86 "HgN/A
Weather by CustomWeather, © 2017

See weather overviewHow to use our weather pages